Other Surface Observations
Issued by NWS Charleston, SC

Home | Current Version | Previous Version | Text Only | Print | Product List | Glossary On
Versions: 1 2 3 4 5 6 7 8 9 10 11 12 13 14 15 16 17 18 19 20 21 22 23 24 25 26 27 28 29 30 31 32 33 34 35 36 37 38 39 40 41 42 43 44 45 46 47 48 49 50
000
SXUS52 KCHS 221927
OSOCHS

MARINE OBSERVATIONS
NATIONAL WEATHER SERVICE CHARLESTON SC
200 PM EST SUN JAN 22 2017

...DOWNTOWN CHARLESTON AND HARBOR...

CITY           SKY/WX    TMP DP  RH WIND       PRES   REMARKS
WATERFRONT PRK   N/A     63  59  87 SW10      29.50F

...LAKE MOULTRIE...

CITY           SKY/WX    TMP DP  RH WIND       PRES   REMARKS
PINOPOLIS        N/A    N/A N/A N/A VRB3      29.44F

...LAKE AND SUPPLEMENTAL COASTAL OBSERVATIONS...

STATION/POSITION TIME  TEMP    WIND        PRES    WAVE   SWELL
                       AIR SEA DIR/SP/G            HT/PER HT/PER/DIR
                 (UTC) (F)     (DEG/KT/KT) (MB)    (FT/S) (FT/S/D)
FORT PULASKI     1900   61 59  170/  8/ 12 1000.5
SAPELO ISLAND    1900   61     130/  5     1000.0
WINYAH BAY       1845   59     160/  9      998.0F
LAKE MURRAY      1920   62     150/  6/  7  998.3
ACE BASIN NERRS  1845   62     180/  3     1000.0S


...C-MAN AND BUOY OBSERVATIONS...

STATION/POSITION TIME  TEMP    WIND        PRES    WAVE   SWELL
                       AIR SEA DIR/SP/G            HT/PER HT/PER/DIR
                 (UTC) (F)     (DEG/KT/KT) (MB)    (FT/S) (FT/S/D)
BUOY 41004       1850   66 68  180/ 10/ 14 1000.6F   6/ 7   5/180/ 7
BUOY 41008       1850   61 60  150/ 12/ 17 1000.2F   4/ 6   3/150/ 6
FOLLY BEACH CMAN 1900   61     220/ 11/ 14 1000.5R
CAPERS NS BUOY   1908   59 57  200/ 14/ 17  999.7R
FRIPP NS BUOY    1908   60 58  210/  6/ 10 1000.8R
5E ST. MARYS GA  1900      63                N/A     4/ 6


STATION/POSITION TIME  TEMP    WIND        PRES    WAVE   SWELL
                       AIR SEA DIR/SP/G            HT/PER HT/PER/DIR
                 (UTC) (F)     (DEG/KT/KT) (MB)    (FT/S) (FT/S/D)
FRYING PAN BUOY  1910   66 69  170/ 14/ 17 1000.8
BUOY 41025       1850   64 72  210/ 10/ 12 1000.4F   4/14   3/100/14
CAPE LOOKOUT NC  1900   61     140/  7/  8  999.1F
BUOY 41002       1850   73 71  190/ 21/ 27 1003.6F   8/ 8   2/ 50/13
BUOY 41010       NOT AVBL
ST AUGUSTINE FL  1900   82 66  210/ 18/ 23  999.3F

$$




USA.gov is the U.S. government's official web portal to all federal, state and local government web resources and services.